Date/Time (UTC),ProbHail,ProbWind,ProbTor,MESH,VIL Density,Flash Rate,Max Flash Density,LJA sigma-level,Max 0-2km AzShear,LLAZ 98th%,MLAZ 98th%,MUCAPE,MLCAPE,CAPE -10C to -30C,MLCIN,SRH 0-1km AGL,EBShear,MeanWind 0-1km AGL,Norm. Sat. Growth Rate,PWAT,WBZ,AvgBeamHgt,size
2019/05/20 19:06,18,4,4,0.0,0.6,0,0.0,0.0,4,3,3,4733,4086,1057,999,225,65.3,46.9,7.9,1.8,10.9,3.9,54
2019/05/20 19:08,18,10,5,0.04,0.6,0,0.0,0.0,4,4,5,4725,4086,1056,999,227,65.3,46.8,7.9,1.8,10.9,3.9,60
2019/05/20 19:10,18,10,5,0.04,0.6,0,0.0,0.0,4,4,4,4675,4080,1052,999,233,64.9,46.7,7.9,1.8,10.8,3.6,78
2019/05/20 19:12,18,10,5,0.04,0.6,0,0.0,0.0,5,4,4,4679,4074,1050,999,233,64.8,46.7,7.9,1.8,10.9,3.6,76
2019/05/20 19:14,18,10,5,0.04,0.6,0,0.0,0.0,4,4,2,4679,4074,1050,999,233,64.8,46.7,7.9,1.8,10.9,3.6,76
2019/05/20 19:16,18,8,5,0.0,0.6,0,0.0,0.0,4,4,2,4671,4079,1052,999,234,64.8,46.7,7.9,1.8,10.8,3.6,109
2019/05/20 19:18,18,23,15,0.0,0.6,0,0.0,0.0,9,7,2,4628,4056,1051,999,235,64.7,46.7,7.9,1.8,10.8,3.5,155
2019/05/20 19:20,18,23,15,0.0,0.6,0,0.0,0.0,9,7,4,4662,4075,1052,999,236,64.8,46.6,7.9,1.8,10.8,3.6,110
2019/05/20 19:22,18,36,15,0.04,0.8,0,0.0,0.0,9,7,4,4602,4049,1051,0,240,64.7,46.6,7.9,1.8,10.8,3.4,135
2019/05/20 19:24,18,36,15,0.05,0.8,0,0.03,0.0,9,7,5,4610,4058,1052,999,240,64.8,46.5,7.9,1.8,10.8,3.5,95
2019/05/20 19:26,18,36,13,0.06,0.8,0,0.03,0.0,9,6,5,4601,4053,1052,999,241,64.8,46.5,7.9,1.8,10.8,3.5,107
2019/05/20 19:28,18,36,15,0.06,0.8,0,0.03,0.0,9,7,5,4559,4041,1053,0,244,65.0,46.4,7.9,1.8,10.8,3.5,89
2019/05/20 19:30,18,36,15,0.06,0.8,0,0.03,0.0,9,7,4,4505,4011,1051,0,245,65.0,46.4,7.9,1.8,10.8,3.3,80
2019/05/20 19:32,16,34,21,0.06,0.9,0,0.03,0.0,9,7,4,4408,3957,1035,0,249,65.2,46.3,7.9,1.8,10.8,3.3,129
2019/05/20 19:34,16,34,21,0.06,0.9,0,0.03,0.0,11,7,4,4408,3957,1035,0,249,65.2,46.3,7.9,1.8,10.8,3.3,129
2019/05/20 19:36,16,36,21,0.11,0.9,0,0.03,0.0,11,7,4,4408,3959,1031,0,249,65.5,46.2,7.9,1.8,10.8,3.3,113
2019/05/20 19:38,16,36,22,0.11,0.9,0,0.03,0.0,11,7,4,4381,3941,1025,0,250,65.7,46.1,7.9,1.8,10.8,3.3,60
2019/05/20 19:40,16,36,22,0.11,1.0,0,0.03,0.0,11,7,5,4347,3922,1019,0,251,65.7,46.1,7.9,1.8,10.8,3.3,74
2019/05/20 19:42,15,36,19,0.17,1.0,1,0.12,0.0,11,6,4,4241,3858,994,0,253,65.7,46.1,7.9,1.8,10.8,3.2,77
2019/05/20 19:44,32,44,19,0.17,1.0,4,0.16,0.0,11,6,4,4173,3816,976,0,255,65.5,46.1,7.9,1.8,10.8,3.1,111
2019/05/20 19:46,32,36,6,0.17,1.0,5,0.34,0.0,5,5,4,4098,3764,954,1,259,65.4,46.0,7.9,1.8,10.8,3.1,101
2019/05/20 19:48,27,42,26,0.1,0.9,6,0.34,0.0,13,6,5,3923,3655,913,2,263,63.7,46.1,7.9,1.8,10.8,3.0,231
2019/05/20 19:50,24,47,30,0.07,0.9,9,0.34,0.0,15,6,5,3797,3567,884,3,267,62.3,46.1,7.9,1.8,10.8,2.9,247
2019/05/20 19:52,16,47,29,0.07,0.8,9,0.34,0.0,15,6,4,4146,3882,846,0,248,60.5,47.8,7.9,1.8,10.8,2.8,234
2019/05/20 19:54,16,47,29,0.06,0.9,9,0.34,0.0,15,6,4,4120,3873,843,0,251,60.4,47.7,7.9,1.8,10.8,2.8,305
2019/05/20 19:56,15,39,24,0.06,0.9,9,0.34,0.0,8,6,4,4001,3772,815,0,258,58.8,47.6,7.9,1.8,10.9,2.8,295
2019/05/20 19:58,11,40,43,0.08,0.9,7,0.34,0.0,18,7,6,3899,3680,791,0,263,57.4,47.6,7.9,1.8,10.9,2.8,312
2019/05/20 20:00,11,51,43,0.1,1.1,8,0.34,0.0,18,7,6,3905,3685,792,0,264,57.5,47.5,7.9,1.8,10.9,2.9,347
2019/05/20 20:02,8,57,46,0.14,1.1,12,0.34,2.1,10,7,6,3688,3462,741,2,277,54.5,47.4,7.9,1.9,10.9,2.8,317
2019/05/20 20:04,7,54,22,0.14,1.1,12,0.34,0.0,9,7,6,3666,3443,739,2,278,54.2,47.4,7.9,1.9,10.9,2.8,280
2019/05/20 20:06,8,63,24,0.14,1.2,16,0.34,2.7,9,7,5,3560,3318,720,3,284,52.6,47.3,7.9,1.9,10.9,2.8,263
2019/05/20 20:08,7,57,20,0.11,1.2,16,0.34,0.0,8,7,5,3503,3244,714,4,288,51.8,47.2,7.9,1.9,11.0,2.8,241
2019/05/20 20:10,7,44,19,0.13,1.2,16,0.34,0.0,8,7,5,3419,3132,705,6,293,50.3,47.1,7.9,1.9,11.0,2.8,223
2019/05/20 20:12,9,61,52,0.26,0.9,16,0.34,1.4,16,8,6,3379,3083,704,7,298,49.6,47.0,7.9,1.9,11.0,2.9,237
2019/05/20 20:14,10,67,54,0.26,0.9,20,0.34,1.5,16,8,7,3289,2959,696,9,305,48.0,46.9,7.9,1.9,11.0,2.9,268
2019/05/20 20:16,33,81,57,0.45,1.0,36,0.55,3.9,16,8,7,3202,2788,681,12,313,46.0,46.8,7.9,1.9,11.0,2.9,278
2019/05/20 20:18,48,81,42,0.56,1.7,36,0.59,0.0,12,7,6,3172,2740,676,14,317,45.2,46.7,7.9,1.9,11.0,2.9,327
2019/05/20 20:20,47,83,54,0.56,1.7,36,0.59,0.0,12,9,8,3133,2662,670,18,325,44.2,46.6,7.9,1.9,11.0,2.9,209
2019/05/20 20:22,46,88,52,0.56,1.7,36,0.59,0.8,12,9,8,3076,2515,655,22,341,42.4,46.4,7.9,1.9,11.1,2.9,398
2019/05/20 20:24,25,84,50,0.44,1.7,32,0.59,0.0,12,9,6,3060,2470,651,28,348,41.8,46.3,7.9,1.9,11.1,3.0,251
2019/05/20 20:26,25,81,50,0.44,1.7,32,0.73,0.9,12,8,6,3060,2470,651,28,348,41.8,46.3,7.9,1.9,11.1,3.0,251
2019/05/20 20:28,25,81,39,0.44,1.7,32,0.73,0.0,12,8,7,3041,2414,646,32,357,41.1,46.2,7.9,1.9,11.1,3.0,225
2019/05/20 20:30,13,78,37,0.23,1.7,31,0.73,0.4,11,9,5,3020,2338,646,39,374,41.1,46.1,7.9,2.0,11.1,3.0,264
2019/05/20 20:32,13,79,32,0.21,1.7,31,0.73,0.0,11,9,4,3007,2287,646,44,389,41.1,46.0,7.9,2.0,11.1,3.0,280
2019/05/20 20:34,8,64,27,0.15,1.2,25,0.73,1.1,11,9,4,2998,2258,647,50,398,41.1,45.9,7.9,2.0,11.1,3.0,290
2019/05/20 20:36,8,60,39,0.15,1.1,25,0.73,0.0,18,11,5,2979,2200,648,58,421,41.5,45.7,7.9,2.0,11.1,3.0,337
2019/05/20 20:38,8,68,33,0.13,1.2,25,0.73,0.7,18,12,6,2955,2153,651,68,441,42.0,45.4,7.9,2.0,11.1,3.1,352
2019/05/20 20:40,8,70,31,0.09,1.3,25,0.73,0.0,21,13,6,2951,2139,655,74,446,42.2,45.3,7.9,2.0,11.1,3.1,328
2019/05/20 20:42,7,65,26,0.07,1.3,23,0.73,0.0,19,14,5,2928,2098,658,82,463,42.8,45.1,7.9,2.0,11.1,3.1,330
2019/05/20 20:44,7,65,20,0.06,1.3,23,0.73,0.0,25,15,6,2925,2083,663,90,469,42.9,45.0,7.9,2.0,11.1,3.2,296
2019/05/20 20:46,5,60,28,0.06,1.3,16,0.73,0.0,25,16,8,2924,2079,668,96,470,43.0,44.9,7.9,2.0,11.1,3.2,290
2019/05/20 20:48,5,58,28,0.06,1.3,12,0.73,0.0,23,17,6,2919,2054,675,114,480,43.3,44.6,7.9,2.0,11.1,3.3,278
2019/05/20 20:50,4,56,28,0.09,1.5,6,0.73,0.0,23,17,6,2911,2037,677,120,487,43.5,44.6,7.9,2.0,11.1,3.3,269
2019/05/20 20:52,4,52,20,0.1,1.5,9,0.73,0.0,23,17,6,2892,2012,677,130,497,43.8,44.6,7.9,2.0,11.1,3.3,317
2019/05/20 20:54,4,55,36,0.1,1.5,11,0.73,0.5,24,17,9,2838,1958,678,156,516,44.6,44.6,7.9,2.0,11.1,3.3,339
2019/05/20 20:56,4,56,81,0.13,1.4,11,0.73,0.0,24,17,9,2880,2286,627,42,541,44.5,45.2,7.9,2.0,12.1,3.3,329
2019/05/20 20:58,4,56,63,0.13,1.4,11,0.43,0.0,24,17,6,2802,2217,620,54,572,44.9,45.2,7.9,2.0,12.1,3.4,360
2019/05/20 21:00,6,68,55,0.17,1.4,16,0.43,3.3,23,13,5,2753,2180,616,63,590,45.0,45.3,7.9,2.0,12.1,3.4,405
2019/05/20 21:02,6,62,29,0.17,1.2,18,0.43,0.5,28,14,5,2718,2158,613,67,602,45.1,45.4,7.9,2.0,12.1,3.4,438
2019/05/20 21:04,6,68,30,0.21,1.5,18,0.43,0.0,28,14,6,2736,2162,614,66,598,45.1,45.2,7.9,2.0,12.1,3.4,204
2019/05/20 21:06,6,71,27,0.23,1.5,20,0.39,1.9,30,14,5,2683,2130,610,71,615,45.2,45.4,7.9,2.0,12.1,3.4,443
2019/05/20 21:08,6,73,37,0.23,1.5,20,0.39,0.0,20,17,9,2691,2132,610,76,613,45.2,45.3,7.9,2.0,12.1,3.4,215
2019/05/20 21:10,6,73,28,0.23,1.3,20,0.33,0.0,20,17,9,2646,2095,607,88,630,45.3,45.4,7.9,2.0,12.1,3.3,219
2019/05/20 21:12,6,73,28,0.18,1.4,20,0.33,1.6,29,25,9,2614,2055,603,97,646,45.4,45.7,7.9,2.0,12.1,3.4,449
2019/05/20 21:14,6,67,34,0.26,1.5,20,0.33,0.0,29,25,10,2588,2035,600,113,656,45.3,45.7,7.9,2.1,12.1,3.3,213
2019/05/20 21:16,6,76,34,0.26,1.5,20,0.33,0.5,29,25,6,2571,2015,598,124,664,45.4,45.7,Storm,2.1,12.1,3.3,232
2019/05/20 21:18,6,76,34,0.26,1.5,20,0.33,0.0,20,14,6,2562,1989,596,146,673,45.2,45.7,Storm,2.1,12.1,3.3,201
2019/05/20 21:20,6,54,17,0.22,1.3,15,0.33,0.0,21,13,5,2567,1987,597,150,674,45.1,45.7,Storm,2.1,12.1,3.3,229
2019/05/20 21:22,1,47,18,0.22,1.2,15,0.33,0.8,20,15,6,2539,1971,593,153,679,45.3,45.7,0,2.1,12.1,3.3,237
2019/05/20 21:24,1,57,18,0.22,1.3,18,0.44,0.9,20,15,6,2529,1947,591,171,686,45.3,45.7,0,2.1,12.1,3.3,200
2019/05/20 21:26,1,53,49,0.28,1.3,18,0.44,0.0,20,15,12,2522,1936,591,176,688,45.5,45.7,0,2.1,12.1,3.4,248
2019/05/20 21:28,1,65,51,0.28,1.4,22,0.44,1.9,24,11,12,2515,1920,590,185,692,46.0,45.8,0,2.1,12.1,3.5,289
2019/05/20 21:30,1,65,51,0.28,1.7,22,0.44,0.0,18,11,12,2508,1902,589,196,695,46.2,45.8,0,2.1,12.1,3.5,291
2019/05/20 21:32,1,69,51,0.27,1.7,24,0.44,0.5,18,11,7,2505,1887,590,205,698,46.0,45.8,0,2.1,12.1,3.5,288
2019/05/20 21:34,1,65,51,0.29,1.7,28,0.44,0.7,18,11,7,2500,1867,589,220,701,46.0,45.8,0,2.1,12.1,3.6,335
2019/05/20 21:36,1,68,36,0.29,1.4,28,0.44,0.0,20,10,10,2532,1775,590,312,713,42.9,45.7,0,2.0,12.1,3.3,67
